Weather History for Bloomington, IN

Change the Weather History Date:

Sunday, February 7, 1999

  Actual Average Record
Temperature  
Mean Temperature 45 °F 31 °F  
Max Temperature 53 °F 41 °F 61 °F (2013)
Min Temperature 37 °F 22 °F -13 °F (2014)
Degree Days  
Heating Degree Days 20 34  
Month to date heating degree days 240  
Since 1 July heating degree days 3415  
Cooling Degree Days 0 0  
Month to date cooling degree days 0  
Year to date cooling degree days 0  
Moisture  
Dew Point 40 °F    
Average Humidity 92    
Maximum Humidity 100    
Minimum Humidity 77    
Precipitation  
Precipitation 2.13 in 0.11 in 2.13 in (1999)
Month to date precipitation 0.73  
Year to date precipitation 4.04  
Sea Level Pressure  
Sea Level Pressure 29.66 in    
Wind  
Wind Speed 12 mph (North)    
Max Wind Speed 23 mph    
Max Gust Speed 33 mph    
Visibility 6 miles    
Events Rain    
T = Trace of Precipitation, MM = Missing Value Source: NWS Daily Summary

Daily Weather History Graph

Daily Weather History Graph

Search for Another Location

Airport:

Trip Planner

Search our weather history database for the weather conditions in past years. The results will help you decide how hot, cold, wet, or windy it might be!

Date:

Astronomy

Feb. 07, 1999 Rise Set
Actual Time 7:47 AM EST 6:14 PM EST
Civil Twilight 7:19 AM EST 6:41 PM EST
Nautical Twilight 6:48 AM EST 7:13 PM EST
Astronomical Twilight 6:16 AM EST 7:44 PM EST
Moon 12:19 AM EST (2/7) 11:39 AM EST (2/7)
Length of Visible Light 11h 22m
Length of Day
10h 26m
Waning Gibbous, 57% of the Moon is Illuminated
Feb 7
Waning Gibbous
Feb 8
Last Quarter
Feb 16
New
Feb 22
First Quarter
Mar 2
Full

Hourly Weather History & Observations

Time (EST) Temp. Windchill Dew Point Humidity Pressure Visibility Wind Dir Wind Speed Gust Speed Precip Events Conditions
12:53 AM 44.1 °F 39.0 °F 41.0 °F 89% 29.86 in 6.0 mi ENE 9.2 mph - 0.09 in Rain Light Rain
1:31 AM 44.6 °F 40.7 °F 42.8 °F 93% 29.85 in 4.0 mi East 6.9 mph - 0.09 in Rain Rain
1:53 AM 44.1 °F 38.6 °F 42.1 °F 93% 29.82 in 3.0 mi East 10.4 mph - 0.15 in Rain Rain
2:28 AM 44.6 °F 39.2 °F 42.8 °F 93% 29.79 in 2.5 mi East 10.4 mph - 0.17 in Rain Rain
2:53 AM 44.1 °F 37.1 °F 43.0 °F 96% 29.76 in 2.5 mi ENE 15.0 mph - 0.26 in Rain Rain
3:34 AM 44.6 °F 36.9 °F 42.8 °F 93% 29.69 in 2.0 mi East 18.4 mph - 0.30 in Rain Heavy Rain
3:53 AM 44.1 °F 37.1 °F 43.0 °F 96% 29.66 in 2.0 mi East 15.0 mph - 0.46 in Rain Heavy Rain
4:53 AM 45.0 °F 38.2 °F 44.1 °F 97% 29.61 in 2.0 mi East 15.0 mph - 0.47 in Rain Heavy Rain
5:40 AM 44.6 °F 40.7 °F 44.6 °F 100% 29.54 in 2.5 mi Variable 6.9 mph - 0.39 in Rain Rain
5:53 AM 46.0 °F 39.6 °F 45.0 °F 96% 29.51 in 3.0 mi East 15.0 mph - 0.46 in Rain Heavy Rain
5:58 AM 46.4 °F 40.4 °F 44.6 °F 93% 29.50 in 2.5 mi East 13.8 mph - 0.03 in Rain Rain
6:14 AM 46.4 °F 40.7 °F 46.4 °F 100% 29.49 in 4.0 mi ESE 12.7 mph - 0.08 in Rain Rain
6:46 AM 46.4 °F 42.9 °F 46.4 °F 100% 29.48 in 2.5 mi ESE 6.9 mph - 0.20 in Rain Rain
6:53 AM 46.9 °F - 46.0 °F 97% 29.47 in 5.0 mi ESE 16.1 mph - 0.21 in Rain Light Rain
7:53 AM 46.9 °F - 46.0 °F 97% 29.46 in 10.0 mi ESE 8.1 mph - 0.01 in   Overcast
8:01 AM 46.4 °F 42.4 °F 46.4 °F 100% 29.45 in 10.0 mi ESE 8.1 mph - N/A   Overcast
8:53 AM 50.0 °F - 46.9 °F 89% 29.44 in 10.0 mi SSE 9.2 mph - N/A   Overcast
9:41 AM 53.6 °F - 46.4 °F 77% 29.42 in 10.0 mi SW 23.0 mph 32.2 mph 0.00 in   Overcast
9:53 AM 51.1 °F - 46.9 °F 86% 29.42 in 5.0 mi SW 21.9 mph 25.3 mph 0.02 in Rain Light Rain
10:53 AM 46.9 °F - 42.1 °F 83% 29.42 in 10.0 mi SSW 23.0 mph 33.4 mph 0.00 in   Overcast
11:17 AM 46.4 °F 38.7 °F 42.8 °F 87% 29.42 in 7.0 mi SW 20.7 mph 29.9 mph 0.00 in Rain Light Rain
11:53 AM 43.0 °F 36.4 °F 39.9 °F 89% 29.44 in 10.0 mi SSW 12.7 mph - 0.00 in   Overcast
12:46 PM 39.2 °F 31.6 °F 39.2 °F 100% 29.47 in 2.0 mi SW 12.7 mph 23.0 mph 0.00 in Rain Light Rain
12:53 PM 39.9 °F 32.1 °F 39.0 °F 97% 29.48 in 2.0 mi SW 13.8 mph - 0.00 in   Overcast
1:04 PM 41.0 °F 34.7 °F 39.2 °F 93% 29.48 in 2.5 mi WSW 10.4 mph - N/A   Overcast
1:21 PM 41.0 °F 33.5 °F 39.2 °F 93% 29.50 in 5.0 mi West 13.8 mph 21.9 mph N/A   Overcast
1:37 PM 39.2 °F 30.2 °F 37.4 °F 93% 29.53 in 4.0 mi NW 17.3 mph 23.0 mph 0.00 in Rain Light Rain
1:53 PM 37.9 °F 28.9 °F 37.0 °F 97% 29.57 in 4.0 mi NW 16.1 mph 23.0 mph 0.00 in   Overcast
2:15 PM 37.4 °F 28.2 °F 35.6 °F 93% 29.60 in 2.5 mi NW 16.1 mph 27.6 mph 0.00 in   Overcast
2:22 PM 37.4 °F 30.8 °F 35.6 °F 93% 29.62 in 3.0 mi WNW 9.2 mph - 0.00 in   Overcast
2:53 PM 37.0 °F 30.4 °F 34.0 °F 89% 29.67 in 8.0 mi WNW 9.2 mph 20.7 mph 0.00 in   Overcast
3:53 PM 37.0 °F 29.3 °F 34.0 °F 89% 29.73 in 10.0 mi WNW 11.5 mph 17.3 mph N/A   Overcast
4:53 PM 39.0 °F 32.8 °F 35.1 °F 86% 29.79 in 10.0 mi WNW 9.2 mph 16.1 mph N/A   Overcast
5:31 PM 39.2 °F 33.0 °F 35.6 °F 87% 29.81 in 10.0 mi WNW 9.2 mph - N/A   Overcast
5:53 PM 39.9 °F 34.5 °F 35.1 °F 83% 29.83 in 10.0 mi NW 8.1 mph - N/A   Overcast
6:12 PM 39.2 °F 32.5 °F 35.6 °F 87% 29.84 in 10.0 mi NW 10.4 mph - N/A   Overcast
6:53 PM 39.0 °F 32.3 °F 36.0 °F 89% 29.89 in 10.0 mi NW 10.4 mph - N/A   Overcast
7:53 PM 37.9 °F 31.5 °F 35.1 °F 89% 29.91 in 10.0 mi NNW 9.2 mph - N/A   Overcast
8:53 PM 37.9 °F 33.5 °F 36.0 °F 93% 29.96 in 10.0 mi NNW 5.8 mph - N/A   Overcast
9:02 PM 37.4 °F 32.8 °F 35.6 °F 93% 29.96 in 10.0 mi NNW 5.8 mph - N/A   Overcast
9:17 PM 37.4 °F 30.8 °F 35.6 °F 93% 29.96 in 10.0 mi North 9.2 mph - N/A   Overcast
9:53 PM 37.9 °F - 35.1 °F 89% 29.99 in 10.0 mi Calm Calm - N/A   Overcast
10:53 PM 37.9 °F 33.5 °F 34.0 °F 86% 29.99 in 9.0 mi NNE 5.8 mph - N/A   Overcast
11:53 PM 37.0 °F 34.5 °F 34.0 °F 89% 29.99 in 10.0 mi East 3.5 mph - N/A   Overcast